7 * 24
多渠道服务支持
STARLINK-34054是美国于2025年5月24日发射的星链卫星,隶属于SpaceX公司的星链项目。星链计划旨在构建全球卫星互联网星座,为全球偏远地区、海洋与航空等场景提供高速低延迟网络服务,该卫星的发射进一步扩充了星链星座的在轨规模,推动星座组网进程。
美国
(US)
| 数据来源 | 国际轨道数据 |
| 星历时间: | 2026-09-12T07:19:16+0800 19小时前 查看轨道信息 |
| 半长轴: | 6861.174km |
| 偏心率: | 0.0001698 |
| 轨道倾角: | 43.003° |
| 近地点辐角 | 267.991° |
| 升交点赤经 | 105.774° |
| 平近点角 | 92.074° |
| 近地点: | 481.871km |
| 远地点: | 484.203km |
| 周期: | 94.266分钟 |
| 每日圈数: | 15.275843 |